Location: Rounton
(54.4000°N, 1.3500°W)
Time: 01:02:32
(UTC+00:00)

Explorer 7 - Pass Details

Date: 02 December 2021
Orbit: 483 x 674 km, 50.3° (Epoch: 18 January)

Event Time Altitude Azimuth Distance (km) Brightness Sun altitude
Rises 06:44:24 0° 216° (SW) 2,779 10.3 -10.9°
Reaches altitude 10° 06:47:06 10° 201° (SSW) 1,844 9.5 -10.5°
Maximum altitude 06:50:18 21° 151° (SSE) 1,233 9.3 -10.1°
Drops below altitude 10° 06:53:22 10° 101° (E) 1,765 10.9 -9.7°
Sets 06:55:54 0° 85° (E) 2,624 11.4 -9.3°
